Location: Chiroubles
(46.1812°N, 4.6660°E)
Time: 11:55:30
(UTC+00:00)

N. Korean satellite - Pass Details

Date: 30 October 2020
Orbit: 453 x 503 km, 97.2° (Epoch: 03 December)

Event Time Altitude Azimuth Distance (km) Brightness Sun altitude
Rises 05:38:13 0° 7° (N) 2,481 10.1 -7.8°
Reaches altitude 10° 05:40:18 10° 2° (N) 1,600 9.1 -7.4°
Maximum altitude 05:43:37 49° 287° (WNW) 598 6.6 -6.9°
Drops below altitude 10° 05:46:54 10° 211° (SSW) 1,589 9.0 -6.3°
Sets 05:48:58 0° 206° (SSW) 2,460 10.0 -6.0°
